Weather Roundup
Issued by NWS Corpus Christi, TX

Home | Current Version | Previous Version | Text Only | Print | Product List | Glossary On
Versions: 1 2 3 4 5 6 7 8 9 10 11 12 13 14 15 16 17 18 19 20 21 22 23 24 25 26 27 28 29 30 31 32 33 34 35 36 37 38 39 40 41 42 43 44 45 46 47 48 49 50
000
ASUS44 KCRP 230910
HRRCRP

SOUTH TEXAS REGIONAL WEATHER ROUNDUP
NATIONAL WEATHER SERVICE CORPUS CHRISTI TX
400 AM CDT TUE MAY 23 2017


TXZ229>244-231000-
...CORPUS CHRISTI AREA OBSERVATIONS...

CITY           SKY/WX    TMP DP  RH WIND       PRES   REMARKS
CORPUS CHRISTI CLOUDY    74  72  93 NE10      29.84S
NAS CORPUS CHR MOCLDY    78  74  87 NE15      29.83S
ROCKPORT       CLOUDY    73  68  84 N13       29.85R
ALICE          CLOUDY    74  70  87 NE14      29.85R
ORANGE GROVE   CLOUDY    75  71  87 NE13      29.87S
FALFURRIAS     CLOUDY    75  74  94 N7        29.83R
$$

...VICTORIA AREA OBSERVATIONS...

CITY           SKY/WX    TMP DP  RH WIND       PRES   REMARKS
VICTORIA       CLOUDY    70  66  87 NE7       29.88R
BEEVILLE       CLOUDY    72  72 100 N10       29.88R
PLEASANTON     CLOUDY    70  65  84 E3        29.88F
SAN ANTONIO    PTCLDY    67  63  87 S8        29.85F
$$

...LAREDO AREA OBSERVATIONS...

CITY           SKY/WX    TMP DP  RH WIND       PRES   REMARKS
LAREDO         LGT RAIN  74  70  87 NE13      29.86S
COTULLA        CLOUDY    73  65  75 E8        29.87F
DEL RIO        CLOUDY    70  68  93 SE8       29.86F
MCALLEN        CLOUDY    80  76  87 SE5       29.81S
HEBBRONVILLE   CLOUDY    73  69  86 NE12      29.87R
$$

...OTHER TEXAS OBSERVATIONS...

CITY           SKY/WX    TMP DP  RH WIND       PRES   REMARKS
BROWNSVILLE    PTCLDY    80  77  90 CALM      29.80S
HOUSTON        CLOUDY    68  65  90 CALM      29.85F
COL. STATION   CLOUDY    64  63  96 N5        29.90R
AUSTIN         CLOUDY    66  64  93 S8        29.79F
WACO           TSTM      64  63  96 NW7       29.91R FOG
FORT WORTH     CLOUDY    66  63  90 S5        29.87S
WICHITA FALLS  CLOUDY    60  58  92 N5        29.90F
LUBBOCK        TSTM      59  54  83 N18       30.05R
EL PASO        PTCLDY    65  19  17 CALM      29.97R
$$

...MARINE OBSERVATIONS...

STATION/POSITION TIME  SKY/WX   TEMP    WIND        PRES    VSBY  WAVE   SWELL
                                AIR SEA DIR/SP/G                  HT/PER HT/PER
                 (UTC)          (F)     (DEG/KT/KT) (MB)    (MI)  (FT/S) (FT/S)
PORT ARANSAS     0800            76 80  360/ 12/ 14 1010.2S
BUOY 90 E PORT A 0750            78 79  350/  4/  6 1009.8          4/ 7   5/ 7
BUOY 45 SE BAFFI 0850            78      80/  6/  8 1008.4F         5/ 7   5/ 7
BUOY 200 E PT IS 0750            79 80  170/ 14/ 16 1009.5          5/ 7   3/ 7
BUOY 15 E GALVES 0750            71 78  320/ 16/ 17 1009.8          3/ 7   2/11
$$



USA.gov is the U.S. government's official web portal to all federal, state and local government web resources and services.